Location: B?ezina
(49.8085°N, 13.6013°E)
Time: 21:06:15
(UTC+00:00)

Cosmos 1459 Rocket - Pass Details

Date: 19 May 2025
Orbit: 936 x 998 km, 83.0° (Epoch: 15 June)

Event Time Altitude Azimuth Distance (km) Brightness Sun altitude
Rises 22:55:17 0° 352° (N) 3,623 8.6 -20.2°
Reaches altitude 10° 22:57:50 10° 357° (N) 2,681 7.5 -20.2°
Maximum altitude 23:03:52 57° 76° (ENE) 1,123 4.3 -20.2°
Enters shadow 23:07:06 28° 143° (SE) 1,731 4.9 -20.2°
